• In Netherlands
  • List of Countries
  • For 7 days
  • Water Temperature
  • Satellite Maps
  • Weather Map
  • Weather Widgets
  • user-avatar
    Login

    Hourly Weather Lezhe

    Today, 22 July, Saturday

    Time Temperature Precipitation Wind Pressure Humidity
    00:00 +25°C° 0 mm 1 mps 737 mmHg 52%
    01:00 +25°C° 0 mm 1 mps 737 mmHg 51%
    02:00 +24°C° 0 mm 1 mps 737 mmHg 51%
    03:00 +24°C° 0 mm 1 mps 737 mmHg 51%
    04:00 +24°C° 0 mm 1 mps 737 mmHg 51%
    05:00 +26°C° 0 mm 1 mps 737 mmHg 48%
    06:00 +28°C° 0 mm 1 mps 738 mmHg 45%
    07:00 +30°C° 0 mm 1 mps 738 mmHg 41%
    08:00 +32°C° 0 mm 1 mps 738 mmHg 38%
    09:00 +34°C° 0 mm 2 mps 738 mmHg 35%
    10:00 +36°C° 0 mm 2 mps 738 mmHg 31%
    11:00 +37°C° 0 mm 2 mps 738 mmHg 30%
    12:00 +37°C° 0 mm 3 mps 738 mmHg 29%
    13:00 +38°C° 0 mm 3 mps 738 mmHg 28%
    14:00 +37°C° 0 mm 3 mps 738 mmHg 29%
    15:00 +37°C° 0 mm 3 mps 737 mmHg 30%
    16:00 +36°C° 0 mm 2 mps 737 mmHg 31%
    17:00 +34°C° 0 mm 2 mps 737 mmHg 36%
    18:00 +30°C° 0 mm 1 mps 737 mmHg 41%
    19:00 +28°C° 0 mm 1 mps 737 mmHg 47%
    20:00 +27°C° 0 mm 1 mps 737 mmHg 47%
    21:00 +26°C° 0 mm 1 mps 738 mmHg 48%
    22:00 +25°C° 0 mm 1 mps 738 mmHg 49%
    23:00 +25°C° 0 mm 1 mps 738 mmHg 48%

    Tomorrow, 23 July, Sunday

    Time Temperature Precipitation Wind Pressure Humidity
    00:00 +25°C° 0 mm 2 mps 738 mmHg 47%
    01:00 +25°C° 0 mm 2 mps 738 mmHg 46%
    02:00 +24°C° 0 mm 2 mps 738 mmHg 46%
    03:00 +24°C° 0 mm 2 mps 737 mmHg 45%
    04:00 +24°C° 0 mm 2 mps 737 mmHg 45%
    05:00 +26°C° 0 mm 2 mps 737 mmHg 43%
    06:00 +28°C° 0 mm 1 mps 737 mmHg 40%
    07:00 +31°C° 0 mm 1 mps 737 mmHg 38%
    08:00 +32°C° 0 mm 1 mps 737 mmHg 35%
    09:00 +35°C° 0 mm 2 mps 737 mmHg 32%
    10:00 +36°C° 0 mm 2 mps 737 mmHg 29%
    11:00 +37°C° 0 mm 3 mps 737 mmHg 29%
    12:00 +37°C° 0 mm 3 mps 737 mmHg 29%
    13:00 +37°C° 0 mm 3 mps 736 mmHg 29%
    14:00 +37°C° 0 mm 3 mps 736 mmHg 30%
    15:00 +37°C° 0 mm 3 mps 736 mmHg 31%
    16:00 +36°C° 0 mm 3 mps 736 mmHg 32%
    17:00 +34°C° 0 mm 2 mps 736 mmHg 38%
    18:00 +30°C° 0 mm 2 mps 736 mmHg 44%
    19:00 +28°C° 0 mm 2 mps 736 mmHg 51%
    20:00 +27°C° 0 mm 1 mps 736 mmHg 52%
    21:00 +26°C° 0 mm 1 mps 736 mmHg 54%
    22:00 +25°C° 0 mm 1 mps 736 mmHg 56%
    23:00 +25°C° 0 mm 1 mps 736 mmHg 56%

    Day after tomorrow, 24 July, Monday

    Time Temperature Precipitation Wind Pressure Humidity
    00:00 +24°C° 0 mm 1 mps 736 mmHg 55%
    01:00 +24°C° 0 mm 1 mps 735 mmHg 55%
    02:00 +24°C° 0 mm 1 mps 735 mmHg 55%
    03:00 +24°C° 0 mm 1 mps 735 mmHg 55%
    04:00 +23°C° 0 mm 1 mps 734 mmHg 55%
    05:00 +26°C° 0 mm 1 mps 734 mmHg 51%
    06:00 +28°C° 0 mm 1 mps 734 mmHg 46%
    07:00 +28°C° 0 mm 0 mps 734 mmHg 42%
    08:00 +31°C° 0 mm 1 mps 734 mmHg 37%
    09:00 +34°C° 0 mm 2 mps 734 mmHg 33%
    10:00 +35°C° 0 mm 2 mps 734 mmHg 28%
    11:00 +36°C° 0 mm 2 mps 733 mmHg 27%
    12:00 +37°C° 0 mm 3 mps 733 mmHg 26%
    13:00 +37°C° 0 mm 3 mps 732 mmHg 25%
    14:00 +37°C° 0 mm 3 mps 732 mmHg 27%
    15:00 +37°C° 0 mm 4 mps 732 mmHg 28%
    16:00 +36°C° 0 mm 4 mps 731 mmHg 29%
    17:00 +34°C° 0 mm 3 mps 731 mmHg 36%
    18:00 +30°C° 0 mm 2 mps 731 mmHg 42%
    19:00 +28°C° 0 mm 1 mps 731 mmHg 49%
    20:00 +27°C° 0 mm 1 mps 731 mmHg 51%
    21:00 +26°C° 0 mm 2 mps 730 mmHg 53%
    22:00 +25°C° 0 mm 2 mps 730 mmHg 54%
    23:00 +25°C° 0 mm 2 mps 730 mmHg 54%

    25 July, Tuesday

    Time Temperature Precipitation Wind Pressure Humidity
    00:00 +24°C° 0 mm 3 mps 730 mmHg 54%
    01:00 +24°C° 0 mm 3 mps 730 mmHg 53%
    02:00 +22°C° 0.1 mm 3 mps 729 mmHg 55%
    03:00 +22°C° 0.1 mm 3 mps 729 mmHg 56%
    04:00 +22°C° 0.1 mm 3 mps 729 mmHg 58%
    05:00 +24°C° 0.9 mm 3 mps 729 mmHg 60%
    06:00 +25°C° 0.9 mm 3 mps 729 mmHg 61%
    07:00 +26°C° 0.9 mm 3 mps 729 mmHg 62%
    08:00 +28°C° 0.5 mm 4 mps 729 mmHg 59%
    09:00 +29°C° 0.5 mm 4 mps 729 mmHg 55%
    10:00 +30°C° 0.5 mm 4 mps 729 mmHg 51%
    11:00 +32°C° 0.4 mm 5 mps 729 mmHg 49%
    12:00 +32°C° 0.4 mm 5 mps 729 mmHg 47%
    13:00 +32°C° 0.4 mm 5 mps 729 mmHg 45%
    14:00 +32°C° 0.2 mm 5 mps 729 mmHg 47%
    15:00 +30°C° 0.2 mm 4 mps 729 mmHg 49%
    16:00 +29°C° 0.2 mm 4 mps 729 mmHg 51%
    17:00 +28°C° 0.2 mm 3 mps 730 mmHg 59%
    18:00 +26°C° 0.2 mm 2 mps 730 mmHg 68%
    19:00 +24°C° 0.2 mm 2 mps 730 mmHg 76%
    20:00 +23°C° 0.2 mm 1 mps 730 mmHg 80%
    21:00 +22°C° 0.2 mm 1 mps 731 mmHg 83%
    22:00 +21°C° 0.2 mm 1 mps 731 mmHg 87%
    23:00 +21°C° 0.1 mm 1 mps 731 mmHg 87%

    26 July, Wednesday

    Time Temperature Precipitation Wind Pressure Humidity
    00:00 +20°C° 0.1 mm 2 mps 731 mmHg 86%
    01:00 +20°C° 0.1 mm 2 mps 731 mmHg 86%
    02:00 +19°C° 0 mm 2 mps 731 mmHg 86%
    03:00 +19°C° 0 mm 2 mps 731 mmHg 86%
    04:00 +19°C° 0 mm 2 mps 732 mmHg 86%
    05:00 +20°C° 0 mm 2 mps 732 mmHg 80%
    06:00 +23°C° 0 mm 2 mps 732 mmHg 74%
    07:00 +24°C° 0 mm 2 mps 732 mmHg 68%
    08:00 +26°C° 0 mm 2 mps 732 mmHg 60%
    09:00 +28°C° 0 mm 2 mps 732 mmHg 52%
    10:00 +30°C° 0 mm 2 mps 732 mmHg 45%
    11:00 +30°C° 0.1 mm 2 mps 732 mmHg 43%
    12:00 +30°C° 0.1 mm 3 mps 732 mmHg 42%
    13:00 +31°C° 0.1 mm 3 mps 732 mmHg 41%
    14:00 +30°C° 0.3 mm 3 mps 732 mmHg 42%
    15:00 +30°C° 0.3 mm 3 mps 732 mmHg 43%
    16:00 +30°C° 0.3 mm 3 mps 732 mmHg 45%
    17:00 +28°C° 0.2 mm 3 mps 732 mmHg 51%
    18:00 +26°C° 0.2 mm 2 mps 733 mmHg 58%
    19:00 +24°C° 0.2 mm 2 mps 733 mmHg 64%
    20:00 +23°C° 0.1 mm 2 mps 733 mmHg 66%
    21:00 +21°C° 0.1 mm 2 mps 734 mmHg 69%
    22:00 +20°C° 0.1 mm 2 mps 734 mmHg 71%
    23:00 +20°C° 0 mm 2 mps 734 mmHg 71%

    27 July, Thursday

    Time Temperature Precipitation Wind Pressure Humidity
    00:00 +19°C° 0 mm 2 mps 734 mmHg 70%
    01:00 +19°C° 0 mm 2 mps 734 mmHg 70%
    02:00 +18°C° 0 mm 2 mps 734 mmHg 70%
    03:00 +18°C° 0 mm 2 mps 734 mmHg 69%
    04:00 +18°C° 0 mm 2 mps 734 mmHg 69%
    05:00 +20°C° 0 mm 2 mps 734 mmHg 63%
    06:00 +23°C° 0 mm 2 mps 734 mmHg 57%
    07:00 +25°C° 0 mm 2 mps 735 mmHg 52%
    08:00 +27°C° 0 mm 2 mps 735 mmHg 46%
    09:00 +29°C° 0 mm 2 mps 735 mmHg 40%
    10:00 +31°C° 0 mm 2 mps 735 mmHg 34%
    11:00 +32°C° 0 mm 2 mps 734 mmHg 32%
    12:00 +33°C° 0 mm 3 mps 734 mmHg 31%
    13:00 +34°C° 0 mm 4 mps 734 mmHg 29%
    14:00 +34°C° 0 mm 4 mps 734 mmHg 31%
    15:00 +33°C° 0 mm 4 mps 734 mmHg 33%
    16:00 +33°C° 0 mm 4 mps 734 mmHg 35%
    17:00 +29°C° 0 mm 3 mps 734 mmHg 43%
    18:00 +27°C° 0 mm 2 mps 734 mmHg 51%
    19:00 +24°C° 0 mm 2 mps 734 mmHg 59%
    20:00 +24°C° 0 mm 1 mps 734 mmHg 62%
    21:00 +23°C° 0 mm 1 mps 734 mmHg 65%
    22:00 +22°C° 0 mm 1 mps 735 mmHg 68%
    23:00 +22°C° 0 mm 1 mps 735 mmHg 67%
    Show more